| time (UTC) | temp F | wind direction | speed MPH | gust MPH | rain 1hr in | rain 24hr in | rain mn in | humidity % | barometer mb |
| 20260507144949 | 54 | 44 | 0.0 | 3.0 | 0.00 | 0.38 | 0.37 | 69 | 1012.2 |
| 20260507144449 | 54 | 76 | 0.0 | 3.0 | 0.00 | 0.38 | 0.37 | 70 | 1012.3 |
| 20260507143951 | 54 | 73 | 1.0 | 3.0 | 0.00 | 0.38 | 0.37 | 73 | 1012.5 |
| 20260507143710 | 54 | 71 | 1.0 | 3.0 | 0.00 | 0.39 | 0.37 | 71 | 1012.6 |
| 20260507142948 | 54 | 53 | 0.0 | 3.0 | 0.00 | 0.40 | 0.37 | 72 | 1012.6 |
| 20260507142448 | 54 | 16 | 0.0 | 3.0 | 0.00 | 0.41 | 0.37 | 74 | 1012.4 |
| 20260507141948 | 54 | 65 | 1.0 | 3.0 | 0.00 | 0.42 | 0.37 | 74 | 1012.5 |
| 20260507141445 | 54 | 63 | 1.0 | 3.0 | 0.00 | 0.45 | 0.37 | 72 | 1012.6 |
| 20260507140946 | 54 | 0 | 1.0 | 4.0 | 0.01 | 0.46 | 0.37 | 72 | 1012.6 |
| 20260507140444 | 54 | 85 | 1.0 | 4.0 | 0.01 | 0.46 | 0.37 | 72 | 1012.7 |
| 20260507140211 | 54 | 74 | 1.0 | 3.0 | 0.01 | 0.46 | 0.37 | 75 | 1012.8 |
| 20260507135446 | 54 | 63 | 1.0 | 4.0 | 0.01 | 0.46 | 0.37 | 75 | 1012.8 |
| 20260507134945 | 54 | 115 | 1.0 | 4.0 | 0.01 | 0.46 | 0.37 | 75 | 1012.7 |
| 20260507134446 | 54 | 103 | 1.0 | 4.0 | 0.01 | 0.46 | 0.37 | 77 | 1012.6 |
| 20260507134205 | 54 | 24 | 1.0 | 4.0 | 0.01 | 0.46 | 0.37 | 79 | 1012.7 |
| 20260507133443 | 53 | 39 | 1.0 | 4.0 | 0.01 | 0.47 | 0.37 | 80 | 1012.8 |
| 20260507132943 | 53 | 76 | 1.0 | 4.0 | 0.01 | 0.47 | 0.37 | 80 | 1012.9 |
| 20260507132442 | 53 | 63 | 1.0 | 5.0 | 0.01 | 0.48 | 0.37 | 80 | 1012.8 |
| 20260507131943 | 53 | 32 | 1.0 | 5.0 | 0.01 | 0.48 | 0.37 | 82 | 1012.7 |
| 20260507131446 | 53 | 75 | 1.0 | 4.0 | 0.01 | 0.49 | 0.37 | 83 | 1012.7 |
| 20260507130938 | 53 | 41 | 1.0 | 4.0 | 0.00 | 0.49 | 0.36 | 84 | 1012.6 |
| 20260507130701 | 53 | 51 | 1.0 | 3.0 | 0.00 | 0.50 | 0.36 | 86 | 1012.7 |
| 20260507125928 | 53 | 88 | 1.0 | 6.0 | 0.00 | 0.50 | 0.36 | 86 | 1012.7 |
| 20260507125907 | 53 | 115 | 1.0 | 6.0 | 0.00 | 0.50 | 0.36 | 87 | 1012.6 |
| 20260507124914 | 54 | 5 | 1.0 | 4.0 | 0.00 | 0.51 | 0.36 | 89 | 1012.7 |
| 20260507124408 | 54 | 43 | 1.0 | 3.0 | 0.00 | 0.51 | 0.36 | 90 | 1012.6 |
| 20260507124345 | 54 | 130 | 1.0 | 5.0 | 0.00 | 0.51 | 0.36 | 91 | 1012.6 |
| 20260507123400 | 54 | 51 | 2.0 | 5.0 | 0.00 | 0.51 | 0.36 | 92 | 1012.2 |
| 20260507122903 | 54 | 44 | 1.0 | 5.0 | 0.00 | 0.51 | 0.36 | 92 | 1012.2 |
| 20260507122401 | 55 | 62 | 1.0 | 4.0 | 0.00 | 0.51 | 0.36 | 93 | 1012.3 |
| 20260507122355 | 55 | 69 | 1.0 | 3.0 | 0.00 | 0.51 | 0.36 | 93 | 1012.3 |
| 20260507121401 | 55 | 56 | 1.0 | 3.0 | 0.00 | 0.51 | 0.36 | 93 | 1012.4 |
| 20260507120901 | 55 | 102 | 1.0 | 2.0 | 0.00 | 0.51 | 0.36 | 93 | 1012.2 |
| 20260507120402 | 55 | 105 | 0.0 | 1.0 | 0.00 | 0.51 | 0.36 | 93 | 1012.1 |
| 20260507115901 | 54 | 61 | 0.0 | 2.0 | 0.00 | 0.51 | 0.36 | 93 | 1011.9 |
| 20260507115402 | 54 | 61 | 0.0 | 2.0 | 0.00 | 0.51 | 0.36 | 93 | 1012.1 |
| 20260507114857 | 54 | 105 | 0.0 | 3.0 | 0.00 | 0.51 | 0.36 | 93 | 1012.1 |
| 20260507114358 | 54 | 355 | 1.0 | 3.0 | 0.00 | 0.51 | 0.36 | 93 | 1012.1 |
| 20260507113858 | 54 | 57 | 0.0 | 2.0 | 0.00 | 0.51 | 0.36 | 93 | 1012.1 |
| 20260507113359 | 54 | 57 | 0.0 | 0.0 | 0.00 | 0.51 | 0.36 | 93 | 1012.1 |
| 20260507112858 | 54 | 57 | 0.0 | 0.0 | 0.00 | 0.51 | 0.36 | 93 | 1012.0 |
| 20260507112359 | 54 | 57 | 0.0 | 0.0 | 0.00 | 0.51 | 0.36 | 93 | 1011.6 |
| 20260507111857 | 54 | 57 | 0.0 | 1.0 | 0.00 | 0.51 | 0.36 | 93 | 1011.5 |
| 20260507111358 | 54 | 57 | 0.0 | 1.0 | 0.00 | 0.51 | 0.36 | 93 | 1011.8 |
| 20260507110857 | 54 | 57 | 0.0 | 1.0 | 0.00 | 0.51 | 0.36 | 93 | 1011.9 |
| 20260507110623 | 54 | 57 | 0.0 | 0.0 | 0.00 | 0.51 | 0.36 | 93 | 1011.9 |
| 20260507110117 | 54 | 57 | 0.0 | 0.0 | 0.00 | 0.51 | 0.36 | 93 | 1011.9 |
| 20260507105357 | 54 | 57 | 0.0 | 1.0 | 0.00 | 0.51 | 0.36 | 93 | 1011.8 |
| 20260507104857 | 54 | 57 | 0.0 | 1.0 | 0.00 | 0.51 | 0.36 | 93 | 1011.8 |
| 20260507104621 | 54 | 57 | 0.0 | 0.0 | 0.00 | 0.51 | 0.36 | 93 | 1012.0 |
| 20260507103855 | 54 | 57 | 0.0 | 1.0 | 0.00 | 0.51 | 0.36 | 93 | 1011.7 |
| 20260507103356 | 54 | 57 | 0.0 | 1.0 | 0.00 | 0.51 | 0.36 | 93 | 1011.7 |
| 20260507102856 | 54 | 57 | 0.0 | 1.0 | 0.00 | 0.51 | 0.36 | 93 | 1011.7 |
| 20260507102356 | 54 | 57 | 0.0 | 1.0 | 0.00 | 0.51 | 0.36 | 93 | 1011.6 |
| 20260507102123 | 54 | 57 | 0.0 | 0.0 | 0.00 | 0.51 | 0.36 | 92 | 1011.5 |
| 20260507101352 | 54 | 57 | 0.0 | 1.0 | 0.00 | 0.51 | 0.36 | 92 | 1011.5 |
| 20260507100853 | 54 | 57 | 0.0 | 1.0 | 0.00 | 0.51 | 0.36 | 92 | 1011.3 |
| 20260507100347 | 54 | 78 | 0.0 | 0.0 | 0.00 | 0.51 | 0.36 | 92 | 1011.4 |
| 20260507095842 | 54 | 78 | 0.0 | 0.0 | 0.00 | 0.51 | 0.36 | 92 | 1011.4 |
| 20260507095335 | 54 | 78 | 0.0 | 0.0 | 0.00 | 0.51 | 0.36 | 92 | 1011.3 |
| 20260507095044 | 54 | 78 | 0.0 | 0.0 | 0.00 | 0.51 | 0.36 | 92 | 1011.2 |
| 20260507094544 | 54 | 78 | 0.0 | 0.0 | 0.00 | 0.51 | 0.36 | 92 | 1011.3 |
| 20260507093818 | 54 | 78 | 0.0 | 0.0 | 0.00 | 0.51 | 0.36 | 92 | 1011.3 |
| 20260507093311 | 54 | 78 | 0.0 | 0.0 | 0.00 | 0.51 | 0.36 | 92 | 1011.4 |
| 20260507092805 | 54 | 78 | 0.0 | 0.0 | 0.00 | 0.51 | 0.36 | 92 | 1011.4 |
| 20260507092300 | 54 | 78 | 0.0 | 0.0 | 0.00 | 0.51 | 0.36 | 92 | 1011.3 |
| 20260507091753 | 54 | 56 | 0.0 | 0.0 | 0.00 | 0.51 | 0.36 | 92 | 1011.1 |
| 20260507091247 | 54 | 57 | 0.0 | 1.0 | 0.00 | 0.51 | 0.36 | 92 | 1011.1 |
| 20260507090741 | 54 | 56 | 0.0 | 1.0 | 0.00 | 0.51 | 0.36 | 92 | 1011.0 |
| 20260507090455 | 54 | 98 | 0.0 | 1.0 | 0.00 | 0.51 | 0.36 | 92 | 1010.8 |
| 20260507085954 | 54 | 98 | 0.0 | 1.0 | 0.00 | 0.51 | 0.36 | 92 | 1010.9 |
| 20260507085454 | 54 | 98 | 1.0 | 2.0 | 0.00 | 0.51 | 0.36 | 92 | 1010.9 |
| 20260507084716 | 54 | 98 | 1.0 | 2.0 | 0.00 | 0.51 | 0.36 | 92 | 1010.9 |
| 20260507084211 | 54 | 72 | 0.0 | 1.0 | 0.00 | 0.51 | 0.36 | 92 | 1011.0 |
| 20260507083706 | 54 | 72 | 0.0 | 1.0 | 0.00 | 0.51 | 0.36 | 92 | 1011.0 |
| 20260507083200 | 54 | 74 | 0.0 | 0.0 | 0.00 | 0.51 | 0.36 | 92 | 1011.0 |
| 20260507082653 | 54 | 74 | 0.0 | 0.0 | 0.00 | 0.51 | 0.36 | 92 | 1011.1 |
| 20260507082406 | 54 | 74 | 0.0 | 2.0 | 0.00 | 0.51 | 0.36 | 92 | 1011.2 |
| 20260507081906 | 54 | 74 | 0.0 | 2.0 | 0.00 | 0.51 | 0.36 | 92 | 1011.0 |
| 20260507081136 | 54 | 60 | 0.0 | 1.0 | 0.00 | 0.51 | 0.36 | 92 | 1011.1 |
| 20260507080629 | 54 | 60 | 0.0 | 4.0 | 0.00 | 0.51 | 0.36 | 92 | 1011.3 |
| 20260507080123 | 55 | 62 | 1.0 | 4.0 | 0.00 | 0.51 | 0.36 | 92 | 1011.0 |
| 20260507075617 | 55 | 51 | 1.0 | 4.0 | 0.00 | 0.51 | 0.36 | 92 | 1010.6 |
| 20260507075337 | 55 | 34 | 1.0 | 4.0 | 0.00 | 0.51 | 0.36 | 91 | 1010.5 |
| 20260507074607 | 55 | 55 | 1.0 | 5.0 | 0.00 | 0.51 | 0.36 | 92 | 1010.5 |
| 20260507074100 | 55 | 78 | 1.0 | 5.0 | 0.00 | 0.51 | 0.36 | 92 | 1010.4 |
| 20260507073553 | 55 | 15 | 1.0 | 6.0 | 0.00 | 0.51 | 0.36 | 92 | 1010.4 |
| 20260507073047 | 55 | 94 | 1.0 | 6.0 | 0.00 | 0.51 | 0.36 | 92 | 1010.4 |
| 20260507072542 | 55 | 32 | 0.0 | 3.0 | 0.00 | 0.51 | 0.36 | 92 | 1010.3 |
| 20260507072255 | 55 | 51 | 1.0 | 5.0 | 0.00 | 0.51 | 0.36 | 92 | 1010.2 |
| 20260507071530 | 55 | 46 | 1.0 | 5.0 | 0.00 | 0.51 | 0.36 | 92 | 1010.2 |
| 20260507071023 | 55 | 60 | 1.0 | 4.0 | 0.00 | 0.51 | 0.36 | 92 | 1010.4 |
| 20260507070517 | 56 | 63 | 1.0 | 5.0 | 0.00 | 0.51 | 0.36 | 92 | 1010.4 |
| 20260507070013 | 56 | 82 | 1.0 | 5.0 | 0.00 | 0.51 | 0.36 | 92 | 1010.4 |
| 20260507065505 | 56 | 14 | 1.0 | 3.0 | 0.00 | 0.51 | 0.36 | 91 | 1010.6 |
| 20260507064959 | 56 | 47 | 0.0 | 3.0 | 0.00 | 0.51 | 0.36 | 91 | 1010.4 |
| 20260507064453 | 56 | 92 | 1.0 | 3.0 | 0.00 | 0.51 | 0.36 | 91 | 1010.3 |
| 20260507063947 | 56 | 52 | 1.0 | 5.0 | 0.00 | 0.51 | 0.36 | 91 | 1010.2 |
| 20260507063441 | 56 | 55 | 1.0 | 5.0 | 0.01 | 0.51 | 0.36 | 91 | 1010.3 |
| 20260507062935 | 56 | 50 | 2.0 | 5.0 | 0.01 | 0.51 | 0.36 | 91 | 1010.4 |
| 20260507062429 | 56 | 321 | 2.0 | 6.0 | 0.02 | 0.51 | 0.36 | 91 | 1010.4 |
| 20260507061925 | 56 | 82 | 2.0 | 6.0 | 0.02 | 0.51 | 0.36 | 91 | 1010.7 |
| 20260507061418 | 56 | 36 | 2.0 | 8.0 | 0.04 | 0.51 | 0.36 | 91 | 1010.6 |
| 20260507060913 | 57 | 92 | 3.0 | 8.0 | 0.05 | 0.51 | 0.36 | 91 | 1010.3 |
| 20260507060405 | 57 | 295 | 2.0 | 8.0 | 0.05 | 0.51 | 0.36 | 91 | 1010.2 |
| 20260507055900 | 57 | 40 | 2.0 | 6.0 | 0.05 | 0.51 | 0.36 | 91 | 1010.1 |
| 20260507055615 | 57 | 53 | 2.0 | 7.0 | 0.06 | 0.51 | 0.36 | 91 | 1010.0 |
| 20260507054847 | 58 | 62 | 2.0 | 7.0 | 0.06 | 0.51 | 0.36 | 90 | 1009.8 |
| 20260507054610 | 58 | 25 | 2.0 | 6.0 | 0.06 | 0.51 | 0.36 | 90 | 1009.4 |
| 20260507053835 | 58 | 20 | 2.0 | 6.0 | 0.06 | 0.51 | 0.36 | 90 | 1009.6 |
| 20260507053336 | 58 | 70 | 1.0 | 4.0 | 0.06 | 0.50 | 0.35 | 90 | 1009.8 |
| 20260507052836 | 58 | 80 | 1.0 | 4.0 | 0.08 | 0.50 | 0.35 | 90 | 1010.0 |
| 20260507052334 | 59 | 117 | 1.0 | 2.0 | 0.08 | 0.49 | 0.34 | 90 | 1009.5 |
| 20260507051835 | 59 | 82 | 0.0 | 2.0 | 0.10 | 0.48 | 0.33 | 89 | 1010.1 |
| 20260507051335 | 59 | 28 | 0.0 | 2.0 | 0.16 | 0.47 | 0.32 | 89 | 1010.5 |
| 20260507050833 | 59 | 21 | 1.0 | 2.0 | 0.26 | 0.46 | 0.31 | 89 | 1010.3 |
| 20260507050330 | 59 | 53 | 0.0 | 2.0 | 0.31 | 0.46 | 0.31 | 89 | 1010.4 |
| 20260507045830 | 60 | 69 | 0.0 | 2.0 | 0.31 | 0.46 | 0.31 | 89 | 1010.5 |
| 20260507045553 | 60 | 187 | 1.0 | 4.0 | 0.30 | 0.45 | 0.30 | 88 | 1010.1 |
| 20260507044825 | 60 | 9 | 1.0 | 9.0 | 0.30 | 0.45 | 0.30 | 88 | 1010.0 |
| 20260507044325 | 60 | 355 | 2.0 | 9.0 | 0.30 | 0.45 | 0.30 | 88 | 1010.0 |
| 20260507043823 | 61 | 100 | 1.0 | 6.0 | 0.30 | 0.45 | 0.30 | 87 | 1010.1 |
| 20260507043323 | 61 | 279 | 1.0 | 4.0 | 0.29 | 0.44 | 0.29 | 87 | 1010.3 |
| 20260507042823 | 62 | 94 | 2.0 | 5.0 | 0.27 | 0.42 | 0.28 | 87 | 1010.4 |
| 20260507042323 | 62 | 47 | 2.0 | 5.0 | 0.26 | 0.41 | 0.26 | 86 | 1010.9 |
| 20260507041823 | 63 | 244 | 2.0 | 5.0 | 0.22 | 0.37 | 0.23 | 86 | 1010.9 |
| 20260507041321 | 63 | 209 | 2.0 | 5.0 | 0.14 | 0.29 | 0.16 | 85 | 1010.9 |
| 20260507040818 | 64 | 132 | 1.0 | 5.0 | 0.05 | 0.20 | 0.05 | 84 | 1010.2 |
| 20260507040319 | 64 | 36 | 1.0 | 3.0 | 0.00 | 0.15 | 0.00 | 84 | 1009.9 |
| 20260507040036 | 64 | 79 | 1.0 | 4.0 | 0.00 | 0.15 | 0.15 | 83 | 1009.3 |
| 20260507035307 | 64 | 71 | 1.0 | 4.0 | 0.00 | 0.15 | 0.15 | 83 | 1009.4 |
| 20260507034801 | 64 | 78 | 1.0 | 4.0 | 0.00 | 0.15 | 0.15 | 83 | 1009.5 |
| 20260507034256 | 64 | 24 | 1.0 | 4.0 | 0.00 | 0.15 | 0.15 | 82 | 1009.6 |
| 20260507033750 | 64 | 16 | 2.0 | 5.0 | 0.00 | 0.15 | 0.15 | 83 | 1009.5 |
| 20260507033243 | 64 | 57 | 2.0 | 5.0 | 0.00 | 0.15 | 0.15 | 83 | 1009.5 |
| 20260507032737 | 64 | 86 | 2.0 | 6.0 | 0.00 | 0.15 | 0.15 | 83 | 1009.5 |
| 20260507032231 | 64 | 51 | 1.0 | 7.0 | 0.00 | 0.15 | 0.15 | 83 | 1009.7 |
| 20260507031725 | 65 | 12 | 1.0 | 7.0 | 0.00 | 0.15 | 0.15 | 84 | 1009.7 |
| 20260507031220 | 65 | 308 | 1.0 | 3.0 | 0.00 | 0.15 | 0.15 | 84 | 1009.8 |
| 20260507030713 | 65 | 28 | 2.0 | 3.0 | 0.00 | 0.15 | 0.15 | 85 | 1009.9 |
| 20260507030207 | 65 | 57 | 2.0 | 4.0 | 0.00 | 0.15 | 0.15 | 86 | 1009.7 |
| 20260507025702 | 65 | 57 | 2.0 | 8.0 | 0.00 | 0.15 | 0.15 | 87 | 1009.2 |
| 20260507025155 | 65 | 22 | 1.0 | 8.0 | 0.00 | 0.15 | 0.15 | 88 | 1009.0 |
| 20260507024649 | 65 | 19 | 2.0 | 3.0 | 0.00 | 0.15 | 0.15 | 88 | 1009.3 |
| 20260507024143 | 65 | 61 | 2.0 | 5.0 | 0.00 | 0.15 | 0.15 | 88 | 1009.4 |
| 20260507023640 | 65 | 44 | 0.0 | 5.0 | 0.00 | 0.15 | 0.15 | 88 | 1009.5 |
| 20260507023403 | 65 | 36 | 0.0 | 0.0 | 0.00 | 0.15 | 0.15 | 88 | 1009.6 |
| 20260507022915 | 65 | 36 | 0.0 | 0.0 | 0.00 | 0.15 | 0.15 | 87 | 1009.3 |
| 20260507022142 | 65 | 350 | 0.0 | 0.0 | 0.00 | 0.15 | 0.15 | 87 | 1009.2 |
| 20260507021642 | 65 | 350 | 0.0 | 0.0 | 0.00 | 0.15 | 0.15 | 87 | 1009.2 |
| 20260507021141 | 65 | 234 | 0.0 | 0.0 | 0.00 | 0.15 | 0.15 | 87 | 1008.9 |
| 20260507020641 | 66 | 234 | 0.0 | 1.0 | 0.00 | 0.15 | 0.15 | 87 | 1008.6 |
| 20260507020140 | 66 | 234 | 0.0 | 1.0 | 0.00 | 0.15 | 0.15 | 87 | 1008.4 |
| 20260507015637 | 66 | 234 | 0.0 | 0.0 | 0.00 | 0.15 | 0.15 | 86 | 1008.7 |
| 20260507015140 | 66 | 234 | 0.0 | 0.0 | 0.00 | 0.15 | 0.15 | 86 | 1008.8 |
| 20260507014640 | 66 | 234 | 0.0 | 0.0 | 0.00 | 0.15 | 0.15 | 86 | 1008.9 |
| 20260507014137 | 66 | 234 | 0.0 | 0.0 | 0.00 | 0.15 | 0.15 | 86 | 1008.9 |
| 20260507013634 | 66 | 234 | 0.0 | 0.0 | 0.00 | 0.15 | 0.15 | 85 | 1009.1 |
| 20260507013131 | 66 | 234 | 0.0 | 0.0 | 0.00 | 0.15 | 0.15 | 85 | 1009.2 |
| 20260507012629 | 66 | 234 | 0.0 | 0.0 | 0.00 | 0.15 | 0.15 | 85 | 1009.0 |
| 20260507012131 | 66 | 234 | 0.0 | 0.0 | 0.00 | 0.15 | 0.15 | 85 | 1009.1 |
| 20260507011627 | 67 | 234 | 0.0 | 0.0 | 0.00 | 0.15 | 0.15 | 84 | 1009.2 |
| 20260507011126 | 67 | 234 | 0.0 | 0.0 | 0.00 | 0.15 | 0.15 | 84 | 1009.2 |
| 20260507010623 | 67 | 234 | 0.0 | 0.0 | 0.00 | 0.15 | 0.15 | 83 | 1009.0 |
| 20260507010354 | 67 | 234 | 0.0 | 0.0 | 0.00 | 0.15 | 0.15 | 83 | 1009.0 |
| 20260507005836 | 67 | 234 | 0.0 | 0.0 | 0.00 | 0.15 | 0.15 | 83 | 1009.1 |
| 20260507005110 | 67 | 234 | 0.0 | 0.0 | 0.00 | 0.15 | 0.15 | 82 | 1009.1 |
| 20260507004603 | 67 | 234 | 0.0 | 0.0 | 0.00 | 0.15 | 0.15 | 82 | 1009.1 |
| 20260507004057 | 68 | 234 | 0.0 | 0.0 | 0.00 | 0.15 | 0.15 | 82 | 1009.0 |
| 20260507003551 | 68 | 234 | 0.0 | 0.0 | 0.00 | 0.15 | 0.15 | 81 | 1008.8 |
| 20260507003045 | 68 | 234 | 0.0 | 0.0 | 0.00 | 0.15 | 0.15 | 81 | 1008.6 |
| 20260507002539 | 68 | 234 | 0.0 | 2.0 | 0.00 | 0.15 | 0.15 | 81 | 1008.6 |
| 20260507002254 | 68 | 234 | 0.0 | 3.0 | 0.00 | 0.15 | 0.15 | 81 | 1008.6 |
| 20260507001534 | 68 | 240 | 0.0 | 3.0 | 0.00 | 0.15 | 0.15 | 81 | 1008.7 |
| 20260507001035 | 69 | 269 | 0.0 | 2.0 | 0.00 | 0.15 | 0.15 | 81 | 1008.6 |
| 20260507000532 | 69 | 271 | 1.0 | 6.0 | 0.00 | 0.15 | 0.15 | 81 | 1008.6 |
| 20260507000306 | 69 | 272 | 1.0 | 6.0 | 0.00 | 0.15 | 0.15 | 80 | 1008.5 |
| 20260506235532 | 69 | 229 | 1.0 | 4.0 | 0.00 | 0.15 | 0.15 | 80 | 1008.4 |
| 20260506235032 | 69 | 225 | 1.0 | 5.0 | 0.00 | 0.15 | 0.15 | 80 | 1008.2 |
| 20260506234532 | 69 | 159 | 1.0 | 6.0 | 0.00 | 0.15 | 0.15 | 79 | 1008.1 |
| 20260506234032 | 69 | 221 | 1.0 | 6.0 | 0.00 | 0.15 | 0.15 | 80 | 1008.1 |
| 20260506233532 | 69 | 299 | 1.0 | 7.0 | 0.00 | 0.15 | 0.15 | 79 | 1008.1 |
| 20260506233514 | 69 | 117 | 1.0 | 7.0 | 0.00 | 0.15 | 0.15 | 79 | 1008.0 |
| 20260506232527 | 69 | 246 | 1.0 | 6.0 | 0.00 | 0.15 | 0.15 | 79 | 1007.9 |
| 20260506232029 | 70 | 227 | 1.0 | 6.0 | 0.00 | 0.15 | 0.15 | 79 | 1007.9 |
| 20260506231746 | 70 | 126 | 1.0 | 6.0 | 0.00 | 0.15 | 0.15 | 79 | 1008.0 |
| 20260506231029 | 70 | 260 | 1.0 | 4.0 | 0.00 | 0.15 | 0.15 | 79 | 1008.0 |
| 20260506230801 | 70 | 234 | 2.0 | 6.0 | 0.00 | 0.15 | 0.15 | 78 | 1008.1 |
| 20260506230027 | 70 | 251 | 2.0 | 6.0 | 0.00 | 0.15 | 0.15 | 79 | 1007.9 |
| 20260506225529 | 70 | 254 | 2.0 | 8.0 | 0.00 | 0.15 | 0.15 | 78 | 1007.9 |
| 20260506225028 | 70 | 198 | 2.0 | 8.0 | 0.00 | 0.15 | 0.15 | 79 | 1007.9 |
| 20260506224529 | 70 | 218 | 1.0 | 8.0 | 0.00 | 0.15 | 0.15 | 79 | 1008.0 |
| 20260506224025 | 70 | 171 | 1.0 | 6.0 | 0.00 | 0.15 | 0.15 | 79 | 1007.9 |
| 20260506223523 | 70 | 248 | 1.0 | 6.0 | 0.00 | 0.15 | 0.15 | 80 | 1007.9 |
| 20260506223025 | 70 | 261 | 1.0 | 3.0 | 0.00 | 0.15 | 0.15 | 81 | 1007.9 |
| 20260506222525 | 70 | 287 | 1.0 | 4.0 | 0.00 | 0.15 | 0.15 | 81 | 1008.0 |
| 20260506222024 | 70 | 223 | 1.0 | 6.0 | 0.00 | 0.15 | 0.15 | 81 | 1008.0 |
| 20260506221524 | 70 | 210 | 0.0 | 6.0 | 0.00 | 0.15 | 0.15 | 81 | 1008.0 |
| 20260506221249 | 70 | 209 | 0.0 | 4.0 | 0.00 | 0.15 | 0.15 | 80 | 1007.9 |
| 20260506220524 | 70 | 209 | 1.0 | 4.0 | 0.00 | 0.15 | 0.15 | 81 | 1007.8 |
| 20260506220239 | 70 | 275 | 1.0 | 4.0 | 0.00 | 0.15 | 0.15 | 80 | 1007.8 |
| 20260506215518 | 69 | 228 | 1.0 | 5.0 | 0.00 | 0.15 | 0.15 | 81 | 1008.0 |
| 20260506215016 | 69 | 227 | 1.0 | 5.0 | 0.00 | 0.15 | 0.15 | 81 | 1008.0 |
| 20260506214516 | 69 | 194 | 1.0 | 5.0 | 0.00 | 0.15 | 0.15 | 80 | 1007.9 |
| 20260506214010 | 69 | 126 | 1.0 | 5.0 | 0.00 | 0.15 | 0.15 | 80 | 1007.9 |
| 20260506213511 | 69 | 215 | 1.0 | 3.0 | 0.00 | 0.15 | 0.15 | 81 | 1008.0 |
| 20260506213008 | 69 | 84 | 2.0 | 6.0 | 0.00 | 0.15 | 0.15 | 80 | 1008.1 |
| 20260506212505 | 69 | 208 | 1.0 | 6.0 | 0.00 | 0.15 | 0.15 | 79 | 1008.1 |
| 20260506212005 | 69 | 263 | 1.0 | 3.0 | 0.00 | 0.15 | 0.15 | 81 | 1008.0 |
| 20260506211503 | 69 | 90 | 0.0 | 3.0 | 0.00 | 0.15 | 0.15 | 80 | 1007.9 |
| 20260506211004 | 69 | 80 | 1.0 | 5.0 | 0.00 | 0.15 | 0.15 | 80 | 1007.8 |
| 20260506210503 | 69 | 262 | 2.0 | 5.0 | 0.00 | 0.15 | 0.15 | 81 | 1007.9 |
| 20260506210003 | 69 | 58 | 1.0 | 4.0 | 0.00 | 0.15 | 0.15 | 82 | 1007.7 |
| 20260506205726 | 69 | 275 | 1.0 | 6.0 | 0.00 | 0.15 | 0.15 | 82 | 1007.8 |
| 20260506205003 | 69 | 249 | 2.0 | 9.0 | 0.00 | 0.15 | 0.15 | 81 | 1007.8 |
| 20260506204734 | 69 | 212 | 2.0 | 9.0 | 0.00 | 0.15 | 0.15 | 82 | 1007.7 |
| 20260506204221 | 68 | 192 | 2.0 | 8.0 | 0.00 | 0.15 | 0.15 | 81 | 1007.9 |
| 20260506203459 | 68 | 232 | 1.0 | 7.0 | 0.00 | 0.15 | 0.15 | 82 | 1007.7 |
| 20260506203000 | 68 | 300 | 2.0 | 6.0 | 0.00 | 0.15 | 0.15 | 82 | 1007.8 |
| 20260506202725 | 68 | 173 | 2.0 | 8.0 | 0.00 | 0.15 | 0.15 | 82 | 1007.9 |
| 20260506202000 | 68 | 142 | 2.0 | 8.0 | 0.00 | 0.15 | 0.15 | 81 | 1007.8 |
| 20260506201459 | 68 | 154 | 1.0 | 5.0 | 0.00 | 0.15 | 0.15 | 81 | 1007.7 |
| 20260506201000 | 69 | 249 | 1.0 | 4.0 | 0.00 | 0.15 | 0.15 | 84 | 1007.9 |
| 20260506200453 | 69 | 280 | 1.0 | 4.0 | 0.00 | 0.15 | 0.15 | 81 | 1007.8 |
| 20260506200440 | 68 | 297 | 2.0 | 10.0 | 0.00 | 0.15 | 0.15 | 82 | 1007.8 |
| 20260506195442 | 68 | 118 | 2.0 | 10.0 | 0.00 | 0.15 | 0.15 | 83 | 1007.9 |
| 20260506194936 | 68 | 234 | 2.0 | 5.0 | 0.00 | 0.15 | 0.15 | 81 | 1007.8 |
| 20260506194430 | 67 | 121 | 2.0 | 6.0 | 0.00 | 0.15 | 0.15 | 83 | 1007.8 |
| 20260506193922 | 67 | 270 | 2.0 | 9.0 | 0.00 | 0.15 | 0.15 | 83 | 1008.0 |
| 20260506193417 | 67 | 128 | 2.0 | 9.0 | 0.00 | 0.15 | 0.15 | 84 | 1008.0 |
| 20260506192910 | 67 | 35 | 2.0 | 9.0 | 0.00 | 0.15 | 0.15 | 84 | 1008.0 |
| 20260506192404 | 66 | 331 | 3.0 | 10.0 | 0.00 | 0.15 | 0.15 | 85 | 1008.0 |
| 20260506191858 | 66 | 294 | 3.0 | 10.0 | 0.00 | 0.15 | 0.15 | 84 | 1008.2 |
| 20260506191352 | 66 | 278 | 2.0 | 7.0 | 0.00 | 0.15 | 0.15 | 84 | 1008.1 |
| 20260506191111 | 66 | 237 | 2.0 | 10.0 | 0.00 | 0.15 | 0.15 | 84 | 1008.5 |
| 20260506190339 | 66 | 250 | 2.0 | 10.0 | 0.00 | 0.15 | 0.15 | 85 | 1008.5 |
| 20260506185550 | 66 | 225 | 2.0 | 9.0 | 0.00 | 0.15 | 0.15 | 85 | 1008.6 |
| 20260506184822 | 66 | 271 | 2.0 | 7.0 | 0.00 | 0.15 | 0.15 | 84 | 1008.7 |
| 20260506184316 | 66 | 230 | 2.0 | 4.0 | 0.00 | 0.15 | 0.15 | 85 | 1008.8 |
| 20260506183811 | 66 | 15 | 2.0 | 7.0 | 0.00 | 0.15 | 0.15 | 86 | 1008.7 |
| 20260506183305 | 66 | 260 | 2.0 | 7.0 | 0.00 | 0.15 | 0.15 | 85 | 1009.0 |
| 20260506182759 | 66 | 164 | 2.0 | 7.0 | 0.00 | 0.15 | 0.15 | 85 | 1008.6 |
| 20260506182252 | 65 | 194 | 2.0 | 7.0 | 0.00 | 0.15 | 0.15 | 85 | 1008.8 |
| 20260506181746 | 65 | 127 | 1.0 | 4.0 | 0.00 | 0.15 | 0.15 | 86 | 1008.6 |
| 20260506181241 | 65 | 153 | 1.0 | 7.0 | 0.00 | 0.15 | 0.15 | 85 | 1008.7 |
| 20260506180735 | 65 | 209 | 1.0 | 7.0 | 0.00 | 0.15 | 0.15 | 85 | 1008.8 |
| 20260506180715 | 65 | 140 | 2.0 | 5.0 | 0.00 | 0.15 | 0.15 | 85 | 1008.7 |
| 20260506175722 | 65 | 140 | 2.0 | 9.0 | 0.00 | 0.15 | 0.15 | 87 | 1008.7 |
| 20260506175645 | 65 | 267 | 2.0 | 9.0 | 0.00 | 0.15 | 0.15 | 85 | 1009.0 |
| 20260506175306 | 65 | 148 | 2.0 | 9.0 | 0.00 | 0.15 | 0.15 | 86 | 1008.9 |
| 20260506174425 | 65 | 165 | 2.0 | 6.0 | 0.00 | 0.15 | 0.15 | 86 | 1008.9 |
| 20260506173658 | 65 | 115 | 2.0 | 9.0 | 0.00 | 0.15 | 0.15 | 86 | 1008.9 |
| 20260506173152 | 65 | 178 | 2.0 | 9.0 | 0.00 | 0.15 | 0.15 | 86 | 1009.0 |
| 20260506172646 | 64 | 198 | 2.0 | 9.0 | 0.00 | 0.15 | 0.15 | 86 | 1009.2 |
| 20260506172143 | 64 | 251 | 2.0 | 9.0 | 0.00 | 0.15 | 0.15 | 87 | 1009.3 |
| 20260506171904 | 64 | 273 | 2.0 | 11.0 | 0.00 | 0.15 | 0.15 | 87 | 1009.2 |
| 20260506171406 | 64 | 214 | 3.0 | 11.0 | 0.00 | 0.15 | 0.15 | 86 | 1009.2 |
| 20260506170643 | 64 | 241 | 3.0 | 11.0 | 0.00 | 0.15 | 0.15 | 86 | 1009.3 |
| 20260506170143 | 64 | 162 | 2.0 | 11.0 | 0.00 | 0.15 | 0.15 | 87 | 1009.4 |
| 20260506165642 | 64 | 86 | 3.0 | 12.0 | 0.00 | 0.15 | 0.15 | 88 | 1009.3 |
| 20260506165143 | 64 | 158 | 3.0 | 12.0 | 0.00 | 0.15 | 0.15 | 86 | 1009.4 |
| 20260506164643 | 64 | 234 | 3.0 | 11.0 | 0.00 | 0.15 | 0.15 | 87 | 1009.2 |
| 20260506164143 | 64 | 154 | 3.0 | 12.0 | 0.00 | 0.15 | 0.15 | 87 | 1009.4 |
| 20260506163643 | 63 | 143 | 3.0 | 15.0 | 0.00 | 0.15 | 0.15 | 87 | 1009.3 |
| 20260506163142 | 63 | 240 | 3.0 | 15.0 | 0.00 | 0.15 | 0.15 | 89 | 1009.3 |
| 20260506162643 | 63 | 185 | 3.0 | 12.0 | 0.00 | 0.15 | 0.15 | 89 | 1009.4 |
| 20260506162143 | 63 | 198 | 3.0 | 12.0 | 0.00 | 0.15 | 0.15 | 90 | 1009.4 |
| 20260506161646 | 63 | 89 | 3.0 | 9.0 | 0.00 | 0.15 | 0.15 | 92 | 1009.6 |
| 20260506161144 | 62 | 181 | 3.0 | 11.0 | 0.00 | 0.15 | 0.15 | 91 | 1009.5 |
| 20260506160909 | 62 | 221 | 3.0 | 11.0 | 0.00 | 0.15 | 0.15 | 91 | 1009.5 |
| 20260506160145 | 61 | 185 | 3.0 | 13.0 | 0.00 | 0.15 | 0.15 | 91 | 1009.6 |
| 20260506155640 | 62 | 240 | 2.0 | 13.0 | 0.00 | 0.15 | 0.15 | 92 | 1009.6 |
| 20260506155133 | 62 | 173 | 2.0 | 11.0 | 0.01 | 0.15 | 0.15 | 92 | 1009.4 |
| 20260506154627 | 62 | 254 | 3.0 | 8.0 | 0.01 | 0.15 | 0.15 | 92 | 1009.6 |
| 20260506154123 | 62 | 233 | 3.0 | 8.0 | 0.01 | 0.15 | 0.15 | 92 | 1009.6 |
| 20260506153623 | 62 | 242 | 2.0 | 8.0 | 0.01 | 0.15 | 0.15 | 92 | 1009.7 |
| 20260506153122 | 62 | 220 | 2.0 | 8.0 | 0.03 | 0.15 | 0.15 | 93 | 1009.6 |
| 20260506152621 | 62 | 101 | 2.0 | 10.0 | 0.04 | 0.15 | 0.15 | 93 | 1009.6 |
| 20260506152120 | 61 | 188 | 3.0 | 10.0 | 0.05 | 0.15 | 0.15 | 93 | 1009.6 |
| 20260506151836 | 61 | 294 | 2.0 | 10.0 | 0.07 | 0.15 | 0.15 | 93 | 1009.7 |
| 20260506151336 | 61 | 136 | 2.0 | 9.0 | 0.08 | 0.15 | 0.15 | 94 | 1009.6 |
| 20260506150836 | 61 | 137 | 3.0 | 12.0 | 0.09 | 0.15 | 0.15 | 94 | 1009.5 |
| 20260506150113 | 61 | 209 | 3.0 | 12.0 | 0.09 | 0.15 | 0.15 | 94 | 1009.7 |
| 20260506145843 | 60 | 230 | 2.0 | 6.0 | 0.09 | 0.15 | 0.15 | 93 | 1009.9 |